EW1033 Weather Reports


time (UTC)temp
F
wind
direction
speed
knots
gust
knots
rain 1hr
in
rain 24hr
in
rain mn
in
humidity
%
barometer
mb
20210920061556 73 300 0.9 2.6 0.00 0.00 0.00 63 1008.1
20210920060136 73 300 0.0 0.0 0.00 0.00 0.00 61 1008.0
20210920054614 74 300 0.0 0.0 0.00 0.00 0.00 60 1007.9
20210920053040 75 300 0.0 0.0 0.00 0.00 0.00 57 1007.9
20210920051542 77 300 0.0 0.0 0.00 0.00 0.00 55 1007.8
20210920050126 77 300 0.0 0.0 0.00 0.00 0.00 56 1007.7
20210920044633 78 300 0.0 0.0 0.00 0.00 0.00 56 1007.7
20210920043030 79 300 0.0 2.6 0.00 0.00 0.00 53 1007.7
20210920041550 80 300 0.9 2.6 0.00 0.00 0.00 51 1007.6
20210920040114 80 300 0.9 4.3 0.00 0.00 0.00 52 1007.5
20210920034526 79 300 0.0 0.0 0.00 0.00 0.00 53 1007.4
20210920033050 80 300 0.0 0.0 0.00 0.00 0.00 52 1007.1
20210920031532 81 300 0.0 0.0 0.00 0.00 0.00 51 1006.9
20210920030049 81 300 0.0 0.0 0.00 0.00 0.00 50 1006.6
20210920024546 81 300 0.0 0.0 0.00 0.00 0.00 49 1006.5
20210920021532 84 300 0.0 1.7 0.00 0.00 0.00 44 1006.1
20210920020053 86 300 0.0 4.3 0.00 0.00 0.00 42 1005.8
20210920014525 86 300 0.9 5.2 0.00 0.00 0.00 41 1005.6
20210920013025 87 300 0.0 3.5 0.00 0.00 0.00 40 1005.4
20210920011521 88 300 0.9 5.2 0.00 0.00 0.00 40 1005.4
20210920010027 89 300 1.7 7.0 0.00 0.00 0.00 39 1005.4
20210920004533 89 301 2.6 7.0 0.00 0.00 0.00 39 1005.4
20210920003046 89 292 4.3 13.0 0.00 0.00 0.00 41 1005.4
20210920001520 88 294 7.0 16.5 0.00 0.00 0.00 44 1005.4
20210920000015 91 282 7.8 13.9 0.00 0.00 0.00 40 1005.3
20210919234514 92 281 8.7 16.5 0.00 0.00 0.00 39 1005.2
20210919233028 92 283 3.5 10.4 0.00 0.00 0.00 39 1005.2
20210919231548 94 280 5.2 10.4 0.00 0.00 0.00 38 1005.2
20210919230025 94 283 3.5 9.6 0.00 0.00 0.00 37 1005.1
20210919224541 95 283 3.5 9.6 0.00 0.00 0.00 37 1005.1
20210919223010 95 284 5.2 11.3 0.00 0.00 0.00 37 1005.3
20210919221546 95 282 4.3 10.4 0.00 0.00 0.00 36 1005.4
20210919220032 95 281 1.7 8.7 0.00 0.00 0.00 37 1005.5
20210919214506 95 281 0.0 10.4 0.00 0.00 0.00 36 1005.8
20210919213003 95 285 0.0 4.3 0.00 0.00 0.00 38 1006.0
20210919211642 93 285 3.5 10.4 0.00 0.00 0.00 39 1006.2
20210919210150 95 285 0.0 7.0 0.00 0.00 0.00 37 1006.4
20210919204617 95 285 1.7 6.1 0.00 0.00 0.00 37 1006.6
20210919203123 94 284 2.6 7.8 0.00 0.00 0.00 38 1006.9
20210919201720 94 284 0.0 5.2 0.00 0.00 0.00 38 1007.1
20210919200433 93 284 0.0 6.1 0.00 0.00 0.00 39 1007.5
20210919194654 94 284 1.7 6.1 0.00 0.00 0.00 41 1007.7
20210919193044 92 284 1.7 5.2 0.00 0.00 0.00 41 1007.9
20210919191553 92 284 0.0 5.2 0.00 0.00 0.00 42 1008.2
20210919190038 92 284 0.0 4.3 0.00 0.00 0.00 43 1008.4
20210919184553 91 284 0.0 5.2 0.00 0.00 0.00 43 1008.7
20210919183038 90 284 0.0 5.2 0.00 0.00 0.00 45 1008.9
20210919181556 91 284 2.6 6.1 0.00 0.00 0.00 44 1009.2
20210919180036 89 284 0.0 4.3 0.00 0.00 0.00 47 1009.3
20210919174522 88 284 0.0 5.2 0.00 0.00 0.00 51 1009.5
20210919173019 87 284 0.0 3.5 0.00 0.00 0.00 52 1009.7
20210919171526 87 284 0.0 0.0 0.00 0.00 0.00 52 1009.9
20210919170043 85 284 0.0 3.5 0.00 0.00 0.00 55 1010.1
20210919164508 85 284 0.0 0.0 0.00 0.00 0.00 56 1010.2
20210919163005 83 284 0.0 2.6 0.00 0.00 0.00 58 1010.3
20210919161529 82 284 0.0 0.0 0.00 0.00 0.00 62 1010.4
20210919160138 81 284 0.0 0.0 0.00 0.00 0.00 64 1010.4
20210919154638 80 284 0.0 1.7 0.00 0.00 0.00 66 1010.4
20210919153517 79 284 0.0 0.9 0.00 0.00 0.00 66 1010.4
20210919151728 78 284 0.0 0.0 0.00 0.00 0.00 67 1010.3
20210919150148 77 284 0.0 1.7 0.00 0.00 0.00 71 1010.4
20210919144601 75 284 0.0 0.9 0.00 0.00 0.00 73 1010.4
20210919143052 74 277 0.0 0.0 0.00 0.00 0.00 76 1010.3
20210919141616 73 277 0.0 0.0 0.00 0.00 0.00 78 1010.4
20210919140041 71 277 0.0 0.0 0.00 0.00 0.00 81 1010.3
20210919134600 70 277 0.0 0.0 0.00 0.00 0.00 85 1010.1
20210919133056 69 277 0.0 0.0 0.00 0.00 0.00 85 1009.9
20210919131558 69 277 0.0 0.0 0.00 0.00 0.00 86 1009.6
20210919130030 69 277 0.0 0.0 0.00 0.00 0.00 85 1009.6
20210919124608 69 277 0.0 0.0 0.00 0.00 0.00 85 1009.6
20210919123032 69 277 0.0 0.0 0.00 0.00 0.00 85 1009.5
20210919121542 69 277 0.0 0.0 0.00 0.00 0.00 84 1009.4
20210919120030 70 277 0.0 0.0 0.00 0.00 0.00 84 1009.3
20210919114605 70 277 0.0 0.0 0.00 0.00 0.00 83 1009.3
20210919113108 70 277 0.0 0.0 0.00 0.00 0.00 83 1009.1
20210919111552 71 277 0.0 0.0 0.00 0.00 0.00 82 1009.0
20210919110026 71 277 0.0 0.0 0.00 0.00 0.00 82 1009.0
20210919104523 71 277 0.0 0.0 0.00 0.00 0.00 82 1009.0
20210919103055 71 277 0.0 0.0 0.00 0.00 0.00 81 1009.0
20210919101543 71 277 0.0 0.0 0.00 0.00 0.00 82 1009.0
20210919100013 71 277 0.0 0.0 0.00 0.00 0.00 81 1009.3
20210919094515 72 277 0.0 0.0 0.00 0.00 0.00 80 1009.5
20210919093013 72 277 0.0 0.0 0.00 0.00 0.00 80 1009.6
20210919091519 72 277 0.0 0.0 0.00 0.00 0.00 79 1009.6
20210919090004 73 277 0.0 0.0 0.00 0.00 0.00 79 1009.6
20210919084509 73 277 0.0 0.0 0.00 0.00 0.00 79 1009.6
20210919083117 73 277 0.0 0.0 0.00 0.00 0.00 78 1009.8
20210919081619 74 277 0.0 0.0 0.00 0.00 0.00 78 1009.9
20210919080121 74 277 0.0 0.0 0.00 0.00 0.00 78 1009.9
20210919074627 74 277 0.0 0.0 0.00 0.00 0.00 78 1010.0
20210919073153 75 277 0.0 0.0 0.00 0.00 0.00 77 1010.2
20210919071622 75 277 0.0 0.0 0.00 0.00 0.00 77 1010.2
20210919070120 75 277 0.0 0.0 0.00 0.00 0.00 75 1010.5
20210919064709 76 277 0.0 0.0 0.00 0.00 0.00 73 1010.5
20210919063121 76 277 0.0 0.0 0.00 0.00 0.00 72 1010.5